Regional Weather Roundup
Issued by NWS Cleveland, OH

Home | Current Version | Previous Version | Text Only | Print | Product List | Glossary Off
Versions: 1 2 3 4 5 6 7 8 9 10 11 12 13 14 15 16 17 18 19 20 21 22 23 24 25 26 27 28 29 30 31 32 33 34 35 36 37 38 39 40 41 42 43 44 45 46 47 48 49 50

000
ASUS41 KCLE 232212
RWRCLE
OHIO REGIONAL WEATHER ROUNDUP
NATIONAL WEATHER SERVICE WILMINGTON, OH
600 PM EDT MON APR 23 2018

NOTE: "FAIR" INDICATES FEW OR NO CLOUDS BELOW 12,000 FEET WITH NO
SIGNIFICANT WEATHER AND/OR OBSTRUCTIONS TO VISIBILITY.

OHZ001>008-015>018-024>027-034-035-043-044-232300-
   NORTHWEST OHIO

CITY           SKY/WX    TMP DP  RH WIND       PRES   REMARKS
DEFIANCE       CLOUDY    61  52  72 S13       30.14R
FINDLAY        LGT RAIN  59  51  75 S20       30.16R
TOLEDO EXPRESS CLOUDY    65  45  48 E8        30.13R
TOLEDO EXEC    FAIR      62  43  49 E8        30.14S
LIMA           CLOUDY    57  50  77 SE22G30   30.16R
$$

OHZ009>014-019>023-028>033-038-089-232300-
   NORTHEAST OHIO

CITY           SKY/WX    TMP DP  RH WIND       PRES   REMARKS
CLE-HOPKINS    CLOUDY    72  40  31 S14       30.16S
CLE-LAKEFRONT  FAIR      72  37  28 SE8       30.13S
CUY CO. ARPT   CLOUDY    73  41  31 S16       30.16S
LORAIN-ELYRIA  FAIR      70  38  31 S10       30.15S
ASHTABULA      FAIR      71  36  27 SE13      30.18R
AKRON-CANTON   PTSUNNY   72  38  29 S13       30.16S
WOOSTER        FAIR      68  39  34 S10       30.16S
MANSFIELD      LGT RAIN  55  47  74 S14       30.19R
YOUNGSTOWN     CLOUDY    70  33  25 SE15G22   30.17R
$$

OHZ042-051>053-060>062-070>072-077>081-232300-
  SOUTHWEST OHIO

CITY           SKY/WX    TMP DP  RH WIND       PRES   REMARKS
CINC-COVINGTON CLOUDY    55  51  86 E15       30.07S
CINC-LUNKEN    CLOUDY    56  53  90 E8        30.10F
HAMILTON       LGT RAIN  56  53  90 E13       30.11S
DAYTON         LGT RAIN  54  53  97 SE18      30.14F
WRIGHT-PAT AFB NOT AVBL
DAYTON GENERAL LGT RAIN  55  50  83 E10G20    30.11F
WILMINGTON     LGT RAIN  53  50  89 E15G21    30.13F
$$

OHZ036-037-039>041-045>050-054>059-063>069-073>076-082>088-232300-
  CENTRAL AND SOUTHEAST OHIO

CITY           SKY/WX    TMP DP  RH WIND       PRES   REMARKS
COLUMBUS       LGT RAIN  56  46  69 SE14      30.20R
OSU AIRPORT    LGT RAIN  55  46  71 SE14G24   30.19S
BOLTON FIELD   RAIN      54  48  82 E9        30.19S
RICKENBACK AFB LGT RAIN  54  49  84 SE9       30.19S
NEWARK         LGT RAIN  58  42  55 S8        30.20R
MARION         CLOUDY    57  48  72 S14       30.19S
LANCASTER      LGT RAIN  55  48  77 SE9       30.20R
ZANESVILLE     NOT AVBL
NEW PHILLY     CLOUDY    67  32  27 SW12G22   30.17R
$$




USA.gov is the U.S. government's official web portal to all federal, state and local government web resources and services.